Regional Weather Roundup
Issued by NWS

Home | Current Version | Previous Version | Graphics & Text | Print | Product List | Glossary On
Versions: 1 2 3 4 5 6 7 8 9 10 11 12 13 14 15 16 17 18 19 20 21 22 23 24 25 26 27 28 29 30 31 32 33 34 35 36 37 38 39 40 41 42 43 44 45 46 47 48 49 50
361
ASUS43 KMPX 102110
RWRMN
WEATHER ROUNDUP FOR MINNESOTA
NATIONAL WEATHER SERVICE TWIN CITIES/CHANHASSEN MN
300 PM CST WED FEB 10 2016


NOTE: "FAIR" INDICATES FEW OR NO CLOUDS BELOW 12,000 FEET WITH NO
SIGNIFICANT WEATHER AND/OR OBSTRUCTIONS TO VISIBILITY. N/A MEANS
CURRENT SKY AND/OR WEATHER CONDITIONS ARE NOT AVAILABLE.

MNZ060>063-068>070-102200-
   Twin Cities Metro

CITY           SKY/WX    TMP DP  RH WIND       PRES   REMARKS
TWIN CITIES    CLOUDY    13  -3  49 NE8       30.11R WCI   2
ST PAUL        MOSUNNY   11  -4  51 N10       30.14R WCI  -3
CRYSTAL        MOSUNNY   13  -3  49 N8        30.11R WCI   2
BLAINE         PTSUNNY   10  -2  56 N7        30.10S WCI   0
LAKEVILLE      MOSUNNY   10   0  61 E6        30.09R WCI   1
EDEN PRAIRIE   CLOUDY    13  -3  49 NE7       30.10R WCI   3
SOUTH ST PAUL  CLOUDY    11  -4  49 N7        30.11S WCI   1
LAKE ELMO      FAIR      10  -4  52 N5        30.12R WCI   2
$$
MNZ001>005-007-008-013>017-022>024-027-028-102200-
   Northwest Minnesota

CITY           SKY/WX    TMP DP  RH WIND       PRES   REMARKS
BEMIDJI        CLOUDY     7  -5  59 CALM      30.11R
HALLOCK        CLOUDY     7  -4  61 N6        30.23R WCI  -3
ROSEAU         CLOUDY     1  -8  66 E5        30.21R WCI  -8
WARROAD        CLOUDY     0  -9  65 N3        30.21R
THIEF RVR FALL CLOUDY     7  -2  66 N5        30.19R WCI  -2
CROOKSTON      CLOUDY     9   0  66 NE6       30.22R WCI  -1
FOSSTON        CLOUDY     7  -2  66 N6        30.14R WCI  -3
DETROIT LAKES  CLOUDY    12   0  57 CALM      30.11R
MOORHEAD       CLOUDY    12   1  62 N5        30.16R WCI   4
PARK RAPIDS    CLOUDY    11  -5  48 NE3       30.08R
MAHNOMEN       CLOUDY    10  -1  63 N7        30.13R WCI  -1
$$
MNZ006-009>011-018-025>026-102200-
   North Central Minnesota

CITY           SKY/WX    TMP DP  RH WIND       PRES   REMARKS
BAUDETTE       SUNNY     -1 -13  56 NW8       30.17R WCI -15
FLAG ISLAND    SUNNY      0 -11  60 N3        30.20R
INTL FALLS     SUNNY      1 -11  57 N6        30.16R WCI -10
WASKISH        CLOUDY     3  -6  66 N5        30.15R WCI  -6
LONGVILLE      CLOUDY     9  -8  47 NE3       30.10S
GRAND RAPIDS   PTSUNNY    7  -9  47 N3        30.10R
CRANE LAKE     SUNNY      0  -9  65 NE5       30.16R WCI -10
ORR            SUNNY      3 -11  51 CALM      30.09R
COOK           SUNNY      5  -9  51 N5        30.11R WCI  -4
WALKER         CLOUDY     5  -6  60 E3        30.10R
$$
MNZ012-019>021-037-102200-
   Northeast Minnesota

CITY           SKY/WX    TMP DP  RH WIND       PRES   REMARKS
DULUTH         SUNNY      9  -9  44 NW8       30.06R WCI  -3
ELY            SUNNY      3  -6  66 NW3       30.08S
HIBBING        SUNNY      3  -7  63 NW7       30.09R HAZE    WCI  -9
EVELETH        SUNNY      7  -8  51 W8        30.10R WCI  -6
DULUTH HARBOR  SUNNY     10  -2  56 SE3       30.15R
TWO HARBORS    SUNNY     16  -2  45 NW6       30.06S WCI   7
SILVER BAY     SUNNY     12  -8  40 N5        30.06S WCI   4
GRAND MARAIS     N/A     11  -6  46 VRB3      30.13R
G MARAIS ARPRT SUNNY      1 -11  55 NW9       30.00R WCI -14
$$
MNZ029>031-032-039>041-046>048-054>057-064-102200-
   West Central Minnesota

CITY           SKY/WX    TMP DP  RH WIND       PRES   REMARKS
FERGUS FALLS   MOSUNNY   12   0  57 NE6       30.14R WCI   3
WHEATON        LGT SNOW  12   7  79 E5        30.13R WCI   4
MORRIS         FLURRIES  12   3  67 E7        30.09R WCI   2
ALEXANDRIA     CLOUDY    11  -2  56 NE5       30.07S WCI   3
ELBOW LAKE     CLOUDY    13  -1  54 SE6       30.10R HAZE    WCI   3
WADENA         CLOUDY    10  -4  52 NE5       30.09R WCI   2
GLENWOOD       CLOUDY    10   0  61 NE8       30.08R WCI  -1
APPLETON       LGT SNOW  14   7  73 E7        30.10R WCI   4
BENSON         CLOUDY    14   1  57 CALM      30.10R
ORTONVILLE     LGT SNOW  10   3  72 E8        30.09R WCI  -1
MADISON        FLURRIES  12   7  79 E8        30.09R WCI   1
WILLMAR        FAIR      14   3  62 NE7       30.10R WCI   4
$$
MNZ033>034-036-042>043-049>051-058-059-102200-
   Central Minnesota

CITY           SKY/WX    TMP DP  RH WIND       PRES   REMARKS
ST CLOUD       PTSUNNY   12  -2  53 N6        30.11R WCI   3
SAUK CENTRE    FAIR      11  -2  55 NE3       30.09R
PAYNESVILLE    CLOUDY    13  -2  52 NE7       30.09R WCI   2
AITKIN         SUNNY     10 -11  37 NE3       30.08F
PINE RIVER       N/A      9  -6  52 N5        30.12S WCI   0
BRAINERD       CLOUDY     9  -7  48 NW5       30.10R WCI   1
STAPLES        PTSUNNY    9  -6  52 NW3       30.09R
LONG PRAIRIE   CLOUDY    10  -4  52 CALM      30.08S
LITTLE FALLS   MOSUNNY   12  -8  40 CALM      30.11S
LITCHFIELD     CLOUDY    12   0  57 NE3       30.09R
BUFFALO        CLOUDY    13  -2  51 NE8       30.12R WCI   1
MAPLE LAKE     CLOUDY    13  -1  54 NE7       30.11R WCI   3
$$
MNZ037-044-045-052-053-102200-
   East Central Minnesota

CITY           SKY/WX    TMP DP  RH WIND       PRES   REMARKS
PRINCETON      CLOUDY    10  -4  52 N5        30.11R WCI   2
MORA           SUNNY     12  -6  44 CALM      30.13R
CAMBRIDGE      CLOUDY    10  -2  56 CALM      30.11R
RUSH CITY      CLOUDY     9  -5  53 N6        30.13R WCI  -1
MOOSE LAKE     SUNNY     10  -8  44 W5        30.09R WCI   2
HINCKLEY       FAIR      10  -6  48 CALM      30.11S
CLOQUET        SUNNY     10 -11  37 N5        30.07R WCI   2
MCGREGOR       SUNNY     10  -6  48 NW3       30.10S
$$
MNZ071>073-080-081-089-090-097-098-102200-
   Southwest Minnesota

CITY           SKY/WX    TMP DP  RH WIND       PRES   REMARKS
MONTEVIDEO     FLURRIES  14   7  73 SE6       30.11R WCI   5
GRANITE FALLS  FLURRIES  15   7  69 E6        30.10S WCI   6
CANBY          CLOUDY    15  10  78 SE9       30.08R WCI   3
MARSHALL       FLURRIES  11   5  77 SE10      30.07R WCI  -3
REDWOOD FALLS  CLOUDY    14   2  58 E8        30.08R WCI   3
OLIVIA         CLOUDY    16   3  57 E5        30.08R WCI   9
PIPESTONE      CLOUDY    16   7  67 E12       29.96S WCI   3
WINDOM         CLOUDY    10   3  72 E9        30.03R WCI  -2
WORTHINGTON    CLOUDY    10   5  79 E14       30.01R WCI  -5
JACKSON        CLOUDY    12   5  73 E12       30.02S WCI  -2
TRACY          CLOUDY    12   7  79 E8        30.05R WCI   0
SLAYTON        CLOUDY    11   8  86 E10       30.01R WCI  -2
$$
MNZ065>067-074>077-082>085-091>093-102200-
   South Central Minnesota

CITY           SKY/WX    TMP DP  RH WIND       PRES   REMARKS
MANKATO        CLOUDY    12   0  57 NE3       30.08R
NEW ULM        CLOUDY    12   1  62 E5        30.08R WCI   4
ST JAMES       CLOUDY    12   5  73 CALM      30.08R
FAIRMONT       CLOUDY    10   3  72 E7        30.05S WCI   0
GLENCOE        CLOUDY    14   4  64 N5        30.09R WCI   6
FARIBAULT      CLOUDY    10   0  61 N6        30.08R WCI   1
OWATONNA       CLOUDY    12   0  57 N7        30.06R WCI   2
WASECA         CLOUDY    14   1  57 N6        30.08R WCI   5
ALBERT LEA     PTSUNNY   12   1  62 NE5       30.04R WCI   4
$$
MNZ078>079-086>088-094>096-102200-
   Southeast Minnesota

CITY           SKY/WX    TMP DP  RH WIND       PRES   REMARKS
ROCHESTER      CLOUDY     9  -1  64 N8        30.04S WCI  -3
RED WING       PTSUNNY    9  -6  52 N6        30.11S WCI  -1
STANTON        CLOUDY    10  -1  61 N5        30.08S WCI   2
DODGE CENTER   CLOUDY    10  -2  56 N6        30.04R WCI   1
WINONA         MOSUNNY   14   1  57 NW6       30.11R WCI   5
AUSTIN         MOSUNNY   10   0  61 N5        30.04S WCI   2
PRESTON        CLOUDY     8  -3  59 N8        30.04S WCI  -4
$$
ABBREVIATIONS USED IN REMARKS
   TC - TEMPERATURES IN CELSIUS
  WCI - WIND CHILL INDEX
   HX - HEAT INDEX
  VSB - VISIBILITY
$$




USA.gov is the U.S. government's official web portal to all federal, state and local government web resources and services.